Regional Weather Roundup
Issued by NWS

Home | Current Version | Previous Version | Text Only | Print | Product List | Glossary On
Versions: 1 2 3 4 5 6 7 8 9 10 11 12 13 14 15 16 17 18 19 20 21 22 23 24 25 26 27 28 29 30 31 32 33 34 35 36 37 38 39 40 41 42 43 44 45 46 47 48 49 50
000
ASUS44 KOUN 161110
RWROK

WEATHER ROUNDUP FOR OKLAHOMA
NATIONAL WEATHER SERVICE NORMAN OK
500 AM CST SAT DEC 16 2017

NOTE: "FAIR" INDICATES FEW OR NO CLOUDS BELOW 12,000 FEET WITH NO
      SIGNIFICANT WEATHER AND/OR OBSTRUCTIONS TO VISIBILITY.

OKZ001>007-009>012-014-015-017-161200-
NORTHWEST OKLAHOMA AND THE PANHANDLE

CITY           SKY/WX    TMP DP  RH WIND       PRES   REMARKS
GAGE           CLOUDY    36  22  56 SW15      29.87F WCI  27
GUYMON         CLOUDY    33  22  63 SW12      29.79F WCI  24
ENID/WOODRING  CLEAR     34  28  80 S6        29.93R WCI  29
$$

OKZ016-021>023-033>039-044-045-161200-
SOUTHWEST OKLAHOMA

CITY           SKY/WX    TMP DP  RH WIND       PRES   REMARKS
LAWTON/REGL    CLOUDY    23  21  92 CALM      30.04F
LAWTON/FT SILL CLOUDY    29  23  79 S3        30.02F
FREDERICK      CLOUDY    29  21  72 S9        30.00F WCI  20
CLINTON        CLOUDY    35  23  61 SW17      29.95F WCI  25
HOBART         CLEAR     34  23  64 S17       29.99F WCI  23
ALTUS AFB      CLOUDY    25  17  72 SE5       30.01F WCI  19
$$

OKZ018>020-024>031-161200-
CENTRAL OKLAHOMA

CITY           SKY/WX    TMP DP  RH WIND       PRES   REMARKS
OKLAHOMA CITY  CLEAR     37  23  56 S13       30.00F WCI  29
OKC/WILEY POST CLEAR     38  25  59 S20       29.99F WCI  28
OKC/TINKER AFB CLEAR     36  23  59 S14       30.00F WCI  27
STILLWATER     CLEAR     38  23  55 S12       29.97S WCI  30
GUTHRIE        CLEAR     41  24  51 S12       29.97F WCI  34
$$

OKZ008-013-054>072-161200-
NORTHEAST OKLAHOMA

CITY           SKY/WX    TMP DP  RH WIND       PRES   REMARKS
TULSA          CLEAR     41  23  48 S10       30.03F WCI  35
TULSA/JONES    CLEAR     39  22  50 S7        30.03F WCI  34
PONCA CITY     CLOUDY    39  24  55 S7        29.95F WCI  34
BARTLESVILLE   CLEAR     36  23  59 S6        30.00F WCI  31
MUSKOGEE       CLOUDY    30  24  78 S7        30.08F WCI  23
$$

OKZ032-040>043-046>053-073>077-161200-
SOUTH CENTRAL/SOUTHEAST OKLAHOMA

CITY           SKY/WX    TMP DP  RH WIND       PRES   REMARKS
ARDMORE/DWNTWN CLOUDY    32  23  69 CALM      30.09F
MCALESTER      CLOUDY    40  25  55 S7        30.09F
$$




USA.gov is the U.S. government's official web portal to all federal, state and local government web resources and services.